Imperial, NE

6:58 AM MST on January 17, 2017 (GMT -0700)
Imperial Municipal

Weather History for KIML - October, 2015

Change the Weather History Date:

Sunday, October 25, 2015

  Actual Average Record
Temperature  
Mean Temperature 53 °F 47 °F  
Max Temperature 72 °F 61 °F 87 °F (1959)
Min Temperature 33 °F 33 °F 13 °F (1942)
Degree Days  
Heating Degree Days 12 18  
Month to date heating degree days 194 329  
Cooling Degree Days 0 0  
Month to date cooling degree days 13 3  
Year to date cooling degree days 1040 960  
Growing Degree Days 2 (Base 50)    
Moisture  
Dew Point 36 °F    
Average Humidity 58    
Maximum Humidity 89    
Minimum Humidity 27    
Precipitation  
Precipitation 0.00 in 0.04 in 1.80 in (1918)
Sea Level Pressure  
Sea Level Pressure 30.17 in    
Wind  
Wind Speed 10 mph (South)    
Max Wind Speed 20 mph    
Max Gust Speed 26 mph    
Visibility 10 miles    
Events Snow    
T = Trace of Precipitation, MM = Missing Value Source: NWS Daily Summary

Daily Weather History Graph

Daily Weather History Graph

Search for Another Location

Airport or City:

Trip Planner

Search our weather history database for the weather conditions in past years. The results will help you decide how hot, cold, wet, or windy it might be!

Date:

Astronomy

Oct. 25, 2015 Rise Set
Actual Time 7:08 AM MDT 5:52 PM MDT
Civil Twilight 6:40 AM MDT 6:20 PM MDT
Nautical Twilight 6:08 AM MDT 6:52 PM MDT
Astronomical Twilight 5:36 AM MDT 7:23 PM MDT
Moon 4:59 PM MDT (10/25) 4:44 AM MDT (10/25)
Length of Visible Light 11h 39m
Length of Day
10h 44m
Waxing Gibbous, 95% of the Moon is Illuminated
Oct 25
Waxing Gibbous
Oct 27
Full
Nov 3
Last Quarter
Nov 11
New
Nov 18
First Quarter

Hourly Weather History & Observations

Time (MDT) Temp. Windchill Dew Point Humidity Pressure Visibility Wind Dir Wind Speed Gust Speed Precip Events Conditions
12:53 AM 41.0 °F 38.0 °F 35.1 °F 79% 30.22 in 10.0 mi West 4.6 mph - N/A   Clear
1:53 AM 39.9 °F 37.8 °F 34.0 °F 79% 30.21 in 10.0 mi WSW 3.5 mph - N/A   Clear
2:53 AM 37.9 °F 35.5 °F 32.0 °F 79% 30.22 in 10.0 mi WSW 3.5 mph - N/A   Clear
3:53 AM 37.0 °F 33.3 °F 32.0 °F 82% 30.21 in 10.0 mi SW 4.6 mph - N/A   Clear
4:53 AM 36.0 °F 30.3 °F 32.0 °F 86% 30.22 in 10.0 mi SE 6.9 mph - N/A   Clear
5:53 AM 33.1 °F 28.7 °F 32.0 °F 96% 30.26 in 9.0 mi South 4.6 mph - 0.00 in Snow Light Snow
6:53 AM 35.1 °F 32.2 °F 30.9 °F 85% 30.25 in 10.0 mi SSE 3.5 mph - 0.00 in   Clear
7:53 AM 37.9 °F - 34.0 °F 86% 30.26 in 10.0 mi Calm Calm - 0.00 in   Clear
8:53 AM 44.1 °F 42.5 °F 37.9 °F 79% 30.26 in 10.0 mi SW 3.5 mph - N/A   Clear
9:53 AM 51.1 °F - 39.0 °F 63% 30.25 in 10.0 mi SW 8.1 mph - N/A   Clear
10:53 AM 60.1 °F - 39.9 °F 47% 30.22 in 10.0 mi North - - N/A   Unknown
11:53 AM 64.0 °F - 39.9 °F 41% 30.19 in - South 12.7 mph - N/A   Clear
12:53 PM 68.0 °F - 37.9 °F 33% 30.14 in - South 11.5 mph - N/A   Clear
1:53 PM 71.1 °F - 36.0 °F 28% 30.11 in - South 13.8 mph 26.5 mph N/A   Clear
2:53 PM 71.1 °F - 36.0 °F 28% 30.09 in - South 18.4 mph 21.9 mph 0.00 in   Clear
3:53 PM 71.1 °F - 37.9 °F 30% 30.09 in - South 15.0 mph - N/A   Clear
4:53 PM 68.0 °F - 39.9 °F 36% 30.10 in - SSE 16.1 mph - N/A   Clear
5:53 PM 62.1 °F - 39.9 °F 44% 30.12 in - SSE 12.7 mph - N/A   Clear
6:53 PM 59.0 °F - 39.9 °F 49% 30.14 in - SSE 12.7 mph - N/A   Clear
7:53 PM 55.9 °F - 39.0 °F 53% 30.14 in - SSE 15.0 mph - N/A   Clear
8:53 PM 55.9 °F - 37.9 °F 51% 30.14 in - South 15.0 mph - N/A   Clear
9:53 PM 55.0 °F - 36.0 °F 49% 30.13 in - South 16.1 mph - N/A   Clear
10:53 PM 53.1 °F - 34.0 °F 48% 30.11 in - South 16.1 mph - N/A   Clear
11:53 PM 52.0 °F - 32.0 °F 47% 30.10 in - South 11.5 mph - N/A   Clear